Location: Tyumen
(57.1527°N, 65.5323°E)
Time: 05:38:27
(UTC+05:00)

ISS - Pass Details

Date: 03 December 2021
Orbit: 413 x 422 km, 51.6° (Epoch: 22 January)

Event Time Altitude Azimuth Distance (km) Brightness Sun altitude
Rises 19:32:52 0° 269° (W) 2,384 1.4 -27.2°
Reaches altitude 10° 19:36:11 10° 234° (SW) 1,511 -0.3 -27.7°
Enters shadow 19:37:03 11° 219° (SW) 1,431 -0.7 -27.8°
